Regional Weather Roundup
Issued by NWS

Home | Current Version | Previous Version | Graphics & Text | Print | Product List | Glossary On
Versions: 1 2 3 4 5 6 7 8 9 10 11 12 13 14 15 16 17 18 19 20 21 22 23 24 25 26 27 28 29 30 31 32 33 34 35 36 37 38 39 40 41 42 43 44 45 46 47 48 49 50
000
ASUS43 KTOP 210259
RWRKS

WEATHER ROUNDUP FOR KANSAS
NATIONAL WEATHER SERVICE GOODLAND KS
900 PM CST MON FEB 20 2017

NOTE:  "FAIR" INDICATES FEW OR NO CLOUDS BELOW 12,000 FEET WITH NO
SIGNIFICANT WEATHER AND/OR OBSTRUCTIONS TO VISIBILITY.

KSZ001>006-013>018-027>032-041>047-210400-
NORTHWEST KANSAS

CITY           SKY/WX    TMP DP  RH WIND       PRES   REMARKS
GOODLAND       CLEAR     35  15  44 S6        30.03R
HAYS           CLEAR     44  33  65 NW5       30.00R
HILL CITY      CLEAR     38  28  67 W3        30.00S
RUSSELL        CLEAR     42  33  70 NW5       29.98R
$$

KSZ061>065-074>080-084>089-210400-
SOUTHWEST KANSAS

CITY           SKY/WX    TMP DP  RH WIND       PRES   REMARKS
DODGE CITY     CLEAR     43  25  49 NW9       30.02R
ELKHART          N/A     51  13  22 N3          N/A
GARDEN CITY    CLEAR     39  18  42 N10       30.03S WCI  32
GREAT BEND     CLEAR     47  35  63 N9        29.99R
LIBERAL        CLEAR     37  10  32 N8        30.05R
$$

KSZ066>073-081>083-090>101-210400-
SOUTHEAST KANSAS

CITY           SKY/WX    TMP DP  RH WIND       PRES   REMARKS
CHANUTE        PTCLDY    57  51  80 S6        29.93S
COFFEYVILLE    PTCLDY    58  53  84 SW3       29.93S
HUTCHINSON     CLEAR     58  39  49 N15       29.95R
MEDICINE LODGE   N/A     54  37  52 N9        29.95R
NEWTON         PTCLDY    53  50  89 NW12      29.95R
PARSONS        CLOUDY    58  52  80 CALM      29.93S
WICHITA INTL   CLEAR     51  49  92 N5        29.93R
WICHITA JABRA  CLEAR     51  50  96 S6        29.94R
WINFIELD       CLEAR     50  48  93 CALM      29.94R
$$

KSZ007>012-019>026-033>040-048>060-102>105-210400-
NORTHEAST KANSAS

CITY           SKY/WX    TMP DP  RH WIND       PRES   REMARKS
CONCORDIA      CLEAR     53  40  61 N10       29.97S
EMPORIA        PTCLDY    51  49  92 SW8       29.91S
LAWRENCE       CLOUDY    58  53  84 S6        29.91S
MANHATTAN      PTCLDY    48  46  93 W3        29.94R
OLATHE IND     MOCLDY    59  52  77 SW8       29.92R
OLATHE EXE     MOCLDY    58  52  80 SW6       29.91S
SALINA         PTCLDY    57  40  52 N14       29.96R
TOPEKA BILLARD PTCLDY    55  51  86 NW3       29.91S
TOPEKA FORBES  PTCLDY    53  50  89 SW6       29.91S
$$



USA.gov is the U.S. government's official web portal to all federal, state and local government web resources and services.